• En España
  • Lista de países
  • Para 7 días
  • Temperatura del agua
  • El tiempo en el mapa
  • Informadores
  • user-avatar
    Iniciar sesión

    Tiempo cada hora l'Hospitalet de Llobregat

    Hoy, 8 Abril, Miércoles

    Tiempo Temperatura Precipitaciones Viento Presión Humedad
    00:00 +13°C° 0 mm 0 mps 762 mmHg 65%
    01:00 +14°C° 0 mm 1 mps 761 mmHg 65%
    02:00 +14°C° 0 mm 1 mps 761 mmHg 64%
    03:00 +13°C° 0 mm 1 mps 761 mmHg 64%
    04:00 +13°C° 0 mm 1 mps 761 mmHg 63%
    05:00 +13°C° 0 mm 1 mps 761 mmHg 62%
    06:00 +13°C° 0 mm 0 mps 761 mmHg 61%
    07:00 +14°C° 0 mm 0 mps 761 mmHg 55%
    08:00 +16°C° 0 mm 1 mps 761 mmHg 50%
    09:00 +19°C° 0 mm 1 mps 761 mmHg 44%
    10:00 +19°C° 0 mm 1 mps 761 mmHg 43%
    11:00 +19°C° 0 mm 2 mps 761 mmHg 41%
    12:00 +20°C° 0 mm 2 mps 761 mmHg 40%
    13:00 +20°C° 0 mm 2 mps 760 mmHg 42%
    14:00 +20°C° 0 mm 2 mps 760 mmHg 43%
    15:00 +20°C° 0 mm 3 mps 759 mmHg 44%
    16:00 +19°C° 0 mm 2 mps 759 mmHg 48%
    17:00 +18°C° 0 mm 2 mps 759 mmHg 51%
    18:00 +18°C° 0 mm 1 mps 759 mmHg 55%
    19:00 +18°C° 0 mm 1 mps 760 mmHg 58%
    20:00 +16°C° 0 mm 1 mps 760 mmHg 60%
    21:00 +16°C° 0 mm 1 mps 760 mmHg 63%
    22:00 +15°C° 0 mm 1 mps 760 mmHg 64%
    23:00 +14°C° 0 mm 0 mps 760 mmHg 65%

    Mañana, 9 Abril, Jueves

    Tiempo Temperatura Precipitaciones Viento Presión Humedad
    00:00 +14°C° 0 mm 0 mps 760 mmHg 66%
    01:00 +13°C° 0 mm 0 mps 760 mmHg 66%
    02:00 +13°C° 0 mm 0 mps 759 mmHg 66%
    03:00 +13°C° 0 mm 0 mps 759 mmHg 67%
    04:00 +13°C° 0 mm 0 mps 759 mmHg 66%
    05:00 +13°C° 0 mm 0 mps 759 mmHg 65%
    06:00 +13°C° 0 mm 0 mps 759 mmHg 64%
    07:00 +14°C° 0 mm 0 mps 759 mmHg 58%
    08:00 +18°C° 0 mm 1 mps 759 mmHg 51%
    09:00 +19°C° 0 mm 1 mps 759 mmHg 45%
    10:00 +20°C° 0 mm 1 mps 759 mmHg 44%
    11:00 +20°C° 0 mm 2 mps 759 mmHg 42%
    12:00 +21°C° 0 mm 2 mps 759 mmHg 41%
    13:00 +21°C° 0 mm 2 mps 759 mmHg 41%
    14:00 +21°C° 0 mm 3 mps 758 mmHg 41%
    15:00 +20°C° 0 mm 3 mps 758 mmHg 42%
    16:00 +20°C° 0 mm 2 mps 758 mmHg 45%
    17:00 +19°C° 0 mm 2 mps 758 mmHg 48%
    18:00 +18°C° 0 mm 2 mps 758 mmHg 51%
    19:00 +18°C° 0 mm 1 mps 758 mmHg 54%
    20:00 +18°C° 0 mm 1 mps 759 mmHg 57%
    21:00 +16°C° 0 mm 1 mps 759 mmHg 60%
    22:00 +16°C° 0 mm 1 mps 759 mmHg 61%
    23:00 +15°C° 0 mm 1 mps 759 mmHg 62%

    Pasado mañana, 10 Abril, Viernes

    Tiempo Temperatura Precipitaciones Viento Presión Humedad
    00:00 +15°C° 0 mm 1 mps 759 mmHg 63%
    01:00 +15°C° 0 mm 1 mps 759 mmHg 63%
    02:00 +14°C° 0 mm 1 mps 759 mmHg 63%
    03:00 +14°C° 0 mm 1 mps 758 mmHg 63%
    04:00 +14°C° 0 mm 1 mps 759 mmHg 63%
    05:00 +14°C° 0 mm 1 mps 759 mmHg 62%
    06:00 +13°C° 0 mm 0 mps 759 mmHg 62%
    07:00 +16°C° 0 mm 1 mps 759 mmHg 57%
    08:00 +18°C° 0 mm 1 mps 759 mmHg 52%
    09:00 +20°C° 0 mm 1 mps 759 mmHg 47%
    10:00 +21°C° 0 mm 1 mps 759 mmHg 44%
    11:00 +20°C° 0 mm 2 mps 759 mmHg 42%
    12:00 +21°C° 0 mm 3 mps 759 mmHg 39%
    13:00 +21°C° 0 mm 3 mps 759 mmHg 40%
    14:00 +21°C° 0 mm 3 mps 758 mmHg 41%
    15:00 +21°C° 0 mm 3 mps 758 mmHg 42%
    16:00 +20°C° 0 mm 3 mps 758 mmHg 46%
    17:00 +19°C° 0 mm 2 mps 758 mmHg 50%
    18:00 +18°C° 0 mm 2 mps 758 mmHg 54%
    19:00 +17°C° 0 mm 2 mps 759 mmHg 57%
    20:00 +16°C° 0 mm 1 mps 759 mmHg 60%
    21:00 +16°C° 0 mm 1 mps 759 mmHg 62%
    22:00 +15°C° 0 mm 1 mps 759 mmHg 64%
    23:00 +15°C° 0 mm 1 mps 759 mmHg 65%

    11 Abril, Sábado

    Tiempo Temperatura Precipitaciones Viento Presión Humedad
    00:00 +14°C° 0 mm 0 mps 759 mmHg 66%
    01:00 +13°C° 0 mm 0 mps 759 mmHg 66%
    02:00 +13°C° 0 mm 0 mps 759 mmHg 66%
    03:00 +13°C° 0 mm 0 mps 759 mmHg 66%
    04:00 +13°C° 0 mm 0 mps 759 mmHg 65%
    05:00 +13°C° 0 mm 0 mps 759 mmHg 65%
    06:00 +13°C° 0 mm 0 mps 759 mmHg 64%
    07:00 +15°C° 0 mm 1 mps 759 mmHg 58%
    08:00 +18°C° 0 mm 1 mps 759 mmHg 51%
    09:00 +19°C° 0 mm 1 mps 759 mmHg 45%
    10:00 +19°C° 0 mm 2 mps 759 mmHg 43%
    11:00 +20°C° 0 mm 2 mps 759 mmHg 41%
    12:00 +20°C° 0 mm 3 mps 759 mmHg 38%
    13:00 +20°C° 0 mm 3 mps 758 mmHg 39%
    14:00 +20°C° 0 mm 3 mps 758 mmHg 41%
    15:00 +20°C° 0 mm 3 mps 758 mmHg 42%
    16:00 +19°C° 0 mm 3 mps 757 mmHg 46%
    17:00 +18°C° 0 mm 3 mps 757 mmHg 50%
    18:00 +17°C° 0 mm 3 mps 757 mmHg 54%
    19:00 +17°C° 0 mm 2 mps 758 mmHg 56%
    20:00 +16°C° 0 mm 2 mps 758 mmHg 59%
    21:00 +15°C° 0 mm 2 mps 758 mmHg 62%
    22:00 +15°C° 0 mm 2 mps 758 mmHg 63%
    23:00 +15°C° 0 mm 2 mps 758 mmHg 65%

    12 Abril, Domingo

    Tiempo Temperatura Precipitaciones Viento Presión Humedad
    00:00 +15°C° 0 mm 1 mps 758 mmHg 66%
    01:00 +15°C° 0 mm 1 mps 758 mmHg 68%
    02:00 +14°C° 0 mm 1 mps 757 mmHg 69%
    03:00 +14°C° 0 mm 1 mps 757 mmHg 71%
    04:00 +14°C° 0 mm 1 mps 757 mmHg 71%
    05:00 +13°C° 0 mm 0 mps 757 mmHg 70%
    06:00 +14°C° 0 mm 0 mps 756 mmHg 70%
    07:00 +15°C° 0 mm 1 mps 756 mmHg 64%
    08:00 +16°C° 0 mm 1 mps 756 mmHg 59%
    09:00 +17°C° 0 mm 2 mps 756 mmHg 53%
    10:00 +18°C° 0 mm 2 mps 756 mmHg 50%
    11:00 +19°C° 0 mm 3 mps 756 mmHg 47%
    12:00 +20°C° 0 mm 3 mps 756 mmHg 43%
    13:00 +20°C° 0 mm 3 mps 755 mmHg 44%
    14:00 +19°C° 0 mm 3 mps 755 mmHg 44%
    15:00 +19°C° 0 mm 3 mps 755 mmHg 44%
    16:00 +19°C° 0 mm 3 mps 755 mmHg 47%
    17:00 +18°C° 0 mm 3 mps 754 mmHg 50%
    18:00 +17°C° 0 mm 2 mps 754 mmHg 53%
    19:00 +16°C° 0 mm 2 mps 754 mmHg 56%
    20:00 +16°C° 0 mm 1 mps 755 mmHg 59%
    21:00 +15°C° 0 mm 1 mps 755 mmHg 62%
    22:00 +15°C° 0 mm 1 mps 755 mmHg 64%
    23:00 +15°C° 0 mm 1 mps 755 mmHg 65%

    13 Abril, Lunes

    Tiempo Temperatura Precipitaciones Viento Presión Humedad
    00:00 +14°C° 0 mm 1 mps 755 mmHg 67%
    01:00 +14°C° 0 mm 1 mps 754 mmHg 68%
    02:00 +14°C° 0 mm 1 mps 754 mmHg 70%
    03:00 +14°C° 0 mm 1 mps 754 mmHg 71%
    04:00 +14°C° 0 mm 1 mps 754 mmHg 71%
    05:00 +14°C° 0 mm 1 mps 754 mmHg 71%
    06:00 +14°C° 0 mm 1 mps 754 mmHg 71%
    07:00 +15°C° 0 mm 2 mps 754 mmHg 64%
    08:00 +16°C° 0 mm 2 mps 754 mmHg 57%
    09:00 +18°C° 0 mm 2 mps 754 mmHg 51%
    10:00 +19°C° 0 mm 3 mps 754 mmHg 48%
    11:00 +19°C° 0 mm 3 mps 754 mmHg 46%
    12:00 +20°C° 0 mm 3 mps 754 mmHg 44%
    13:00 +20°C° 0 mm 3 mps 754 mmHg 44%
    14:00 +20°C° 0 mm 3 mps 754 mmHg 45%
    15:00 +20°C° 0 mm 3 mps 754 mmHg 46%
    16:00 +19°C° 0 mm 3 mps 754 mmHg 49%
    17:00 +18°C° 0 mm 3 mps 754 mmHg 53%
    18:00 +17°C° 0 mm 2 mps 754 mmHg 56%
    19:00 +17°C° 0 mm 2 mps 755 mmHg 59%
    20:00 +16°C° 0 mm 2 mps 755 mmHg 61%
    21:00 +16°C° 0 mm 1 mps 755 mmHg 63%
    22:00 +15°C° 0 mm 1 mps 755 mmHg 63%
    23:00 +15°C° 0 mm 1 mps 755 mmHg 63%
    Mostrar más